Location: downtown San Diego
(32.7310°N, 117.1990°W)
Time: 06:20:30
(UTC-07:00)

Abrixas - Pass Details

Date: 19 May 2017
Orbit: 320 x 326 km, 48.4° (Epoch: 24 May)

Event Time Altitude Azimuth Distance (km) Brightness Sun altitude
Rises 21:17:44 0° 316° (NW) 2,057 8.0 -17.6°
Reaches altitude 10° 21:19:47 10° 325° (NW) 1,224 6.3 -17.9°
Enters shadow 21:22:13 37° 27° (NNE) 510 3.2 -18.3°
